Погода в Солуно-Дмитриевском

Россия / Ставропольский край     44°24′17″N   42°43′49″E
темп.,
°C
ветер,
м/с
пор.,
м/с
влажн.,
%
обл.,
%
осадки,
мм/ч
давл.,
гПа
погр.,
м
18 мая, вт
вт1800:00+14зсз61294100 0.6 1009480
03:00+13зсз61293100 0.8 1010593
06:00+13зсз41096100 2.3 1011564
09:00+15зсз4785100 3.6 1012521
12:00+19ссз456396 0.0 10121134
15:00+20с2259100 0.0 10121452
18:00+18ссв237426 0.0 1011142
21:00+14в22840 0.0 101224
19 мая, ср
ср1900:00+13в48911 0.0 1011137
03:00+12в499436 0.0 1009178
06:00+14з3488100 0.0 1011252
09:00+16з338596 0.4 1010455
12:00+18зсз111278100 0.8 10121221
15:00+17зсз686610 0.8 10141041
18:00+16с137397 0.1 1016234
21:00+13в118274 0.3 101712
20 мая, чт
чт2000:00+11вюв22895 0.0 101718
03:00+10вюв2393100 0.0 101732
06:00+12вюв259246 0.0 1017145
09:00+17юв68635 0.0 1016797
12:00+20юв785750 0.0 10151069
15:00+21вюв7855100 0.0 10141146
18:00+19вюв610653 0.0 1015658
21:00+15вюв5137340 0.0 1015246
21 мая, пт
пт2100:00+15вюв715705 0.0 1013337
03:00+12вюв512690 0.0 1013204
06:00+12вюв511770 0.0 1014228
09:00+19вюв68640 0.0 1013411
12:00+23вюв810572 0.0 1012685
15:00+25вюв912565 0.0 1011888
18:00+23вюв8136495 0.0 1011590
21:00+19вюв815672 0.0 1012384
22 мая, сб
сб2200:00+15вюв61376100 0.0 1011263
03:00+13в5118474 0.0 1011208
06:00+13вюв5118446 0.0 1011238
09:00+20вюв7106971 0.0 1009407
12:00+25вюв81159100 0.0 1008676
15:00+28вюв81254100 0.0 1007974
18:00+25в51061100 0.0 1008341
21:00+19в41165100 0.0 1009200